Las Vegas, NM

1:04 AM MST on January 20, 2018 (GMT -0700)
Las Vegas Municipal

Weather History for KLVS - August, 2014

Change the Weather History Date:

Saturday, August 2, 2014

  Actual Average Record
Temperature  
Mean Temperature 62 °F -  
Max Temperature 70 °F 81 °F 93 °F (2012)
Min Temperature 54 °F 53 °F 33 °F (2000)
Degree Days  
Heating Degree Days 4    
Growing Degree Days 12 (Base 50)    
Moisture  
Dew Point 52 °F    
Average Humidity 78    
Maximum Humidity 97    
Minimum Humidity 42    
Precipitation  
Precipitation 0.11 in - - ()
Sea Level Pressure  
Sea Level Pressure 30.22 in    
Wind  
Wind Speed 6 mph (ESE)    
Max Wind Speed 12 mph    
Max Gust Speed -    
Visibility 9 miles    
Events Rain    
Averages and records for this station are not official NWS values.
T = Trace of Precipitation, MM = Missing Value Source: NWS Daily Summary

Daily Weather History Graph

Daily Weather History Graph

Search for Another Location

Airport or City:

Trip Planner

Search our weather history database for the weather conditions in past years. The results will help you decide how hot, cold, wet, or windy it might be!

Date:

Astronomy

Aug. 02, 2014 Rise Set
Actual Time 6:09 AM MDT 8:03 PM MDT
Civil Twilight 5:41 AM MDT 8:31 PM MDT
Nautical Twilight 5:07 AM MDT 9:05 PM MDT
Astronomical Twilight 4:31 AM MDT 9:41 PM MDT
Moon 12:19 PM MDT (8/2) 11:39 PM MDT (8/2)
Length of Visible Light 14h 50m
Length of Day
13h 54m
Waxing Crescent, 37% of the Moon is Illuminated
Aug 2
Waxing Crescent
Aug 3
First Quarter
Aug 10
Full
Aug 17
Last Quarter
Aug 25
New

Hourly Weather History & Observations

Time (MDT) Temp. Dew Point Humidity Pressure Visibility Wind Dir Wind Speed Gust Speed Precip Events Conditions
12:00 AM 55.0 °F 54.0 °F 96% 30.41 in 4.0 mi NNE 9.2 mph - 0.01 in Rain Rain
12:16 AM 55.0 °F 54.0 °F 96% 30.41 in 4.0 mi ENE 9.2 mph - 0.05 in Rain Rain
12:36 AM 55.0 °F 54.0 °F 96% 30.41 in 4.0 mi ENE 5.8 mph - 0.08 in Rain Rain
12:53 AM 55.0 °F 54.0 °F 96% 30.14 in 4.0 mi East 4.6 mph - 0.11 in Rain Rain
1:15 AM 55.0 °F 54.0 °F 96% 30.40 in 6.0 mi SSE 11.5 mph - 0.02 in Rain Light Rain
2:53 AM 54.0 °F 52.0 °F 93% 30.13 in 10.0 mi South 4.6 mph - 0.00 in   Overcast
3:53 AM 54.0 °F 53.1 °F 97% 30.12 in 8.0 mi NW 4.6 mph - N/A   Overcast
4:53 AM 55.0 °F 53.1 °F 93% 30.12 in 10.0 mi Calm Calm - N/A   Overcast
5:53 AM 55.0 °F 53.1 °F 93% 30.14 in 10.0 mi East 6.9 mph - N/A   Overcast
6:53 AM 55.0 °F 54.0 °F 96% 30.17 in 9.0 mi ENE 5.8 mph - N/A   Overcast
7:53 AM 55.9 °F 54.0 °F 93% 30.20 in 10.0 mi NE 5.8 mph - N/A   Overcast
8:53 AM 55.9 °F 54.0 °F 93% 30.21 in 10.0 mi ENE 4.6 mph - N/A   Overcast
9:53 AM 57.9 °F 53.1 °F 84% 30.22 in 10.0 mi NE 4.6 mph - 0.00 in Rain Light Rain
10:21 AM 59.0 °F 53.1 °F 81% 30.45 in 10.0 mi NNE 4.6 mph - 0.00 in   Overcast
10:53 AM 61.0 °F 53.1 °F 75% 30.20 in 10.0 mi Calm Calm - 0.00 in   Overcast
11:20 AM 61.0 °F 54.0 °F 78% 30.45 in 10.0 mi Variable 3.5 mph - N/A   Overcast
11:53 AM 62.1 °F 53.1 °F 72% 30.19 in 10.0 mi Calm Calm - N/A   Overcast
12:19 PM 63.0 °F 52.0 °F 67% 30.44 in 10.0 mi ENE 3.5 mph - N/A   Overcast
12:51 PM 62.6 °F 51.8 °F 68% 30.44 in 10.0 mi Calm Calm - N/A   Overcast
12:53 PM 64.0 °F 51.1 °F 63% 30.18 in 10.0 mi Variable 3.5 mph - N/A   Overcast
1:53 PM 66.0 °F 48.9 °F 54% 30.16 in 10.0 mi Calm Calm - N/A   Mostly Cloudy
2:53 PM 68.0 °F 48.9 °F 50% 30.13 in 10.0 mi SE 6.9 mph - N/A   Overcast
3:53 PM 69.1 °F 45.0 °F 42% 30.12 in 10.0 mi SW 4.6 mph - N/A   Mostly Cloudy
4:53 PM 69.1 °F 48.0 °F 47% 30.11 in 10.0 mi SE 9.2 mph - N/A   Mostly Cloudy
5:53 PM 66.0 °F 52.0 °F 60% 30.10 in 10.0 mi ESE 9.2 mph - N/A   Overcast
6:53 PM 64.9 °F 52.0 °F 63% 30.12 in 10.0 mi ESE 11.5 mph - N/A   Overcast
7:53 PM 63.0 °F 52.0 °F 67% 30.13 in 10.0 mi SSE 6.9 mph - N/A   Overcast
8:53 PM 61.0 °F 54.0 °F 78% 30.14 in 10.0 mi South 3.5 mph - N/A   Overcast
9:53 PM 61.0 °F 54.0 °F 78% 30.16 in 10.0 mi SW 4.6 mph - 0.00 in   Overcast
10:53 PM 61.0 °F 53.1 °F 75% 30.16 in 10.0 mi SW 4.6 mph - N/A   Overcast
11:53 PM 60.1 °F 53.1 °F 78% 30.16 in 10.0 mi SW 3.5 mph - N/A   Overcast